Sussex, NJ

1:34 PM EST on November 22, 2019 (GMT -0500)
Sussex

Weather History for KFWN - September, 2019

Change the Weather History Date:

Tuesday, September 3, 2019

  Actual Average Record
Temperature  
Mean Temperature 68 °F -  
Max Temperature 82 °F 78 °F 102 °F (1953)
Min Temperature 55 °F 54 °F 36 °F (1967)
Cooling Degree Days 3    
Growing Degree Days 18 (Base 50)    
Moisture  
Dew Point 59 °F    
Average Humidity 82    
Maximum Humidity 97    
Minimum Humidity 45    
Precipitation  
Precipitation 0.00 in - - ()
Sea Level Pressure  
Sea Level Pressure 30.03 in    
Wind  
Wind Speed 1 mph ()    
Max Wind Speed 6 mph    
Max Gust Speed -    
Visibility 6.7 miles    
Events Fog , Rain    
Averages and records for this station are not official NWS values.
T = Trace of Precipitation, MM = Missing Value Source: Averaged Metar Reports

Daily Weather History Graph

Daily Weather History Graph

Search for Another Location

Airport or City:

Astronomy

Sep. 03, 2019 Rise Set
Actual Time 6:26 AM EDT 7:28 PM EDT
Civil Twilight 5:58 AM EDT 7:56 PM EDT
Nautical Twilight 5:24 AM EDT 8:30 PM EDT
Astronomical Twilight 4:49 AM EDT 9:04 PM EDT
Moon 11:19 AM EDT (9/3) 10:20 PM EDT (9/3)
Length of Visible Light 13h 58m
Length of Day
13h 01m
Waxing Crescent, 24% of the Moon is Illuminated
Sep 3
Waxing Crescent
Sep 5
First Quarter
Sep 14
Full
Sep 21
Last Quarter
Sep 28
New

Hourly Weather History & Observations

Time (EDT) Temp. Heat Index Dew Point Humidity Pressure Visibility Wind Dir Wind Speed Gust Speed Precip Events Conditions
12:20 AM 64.0 °F - 63.0 °F 96% 30.02 in 1.8 mi Calm Calm - N/A   Clear
12:36 AM 64.0 °F - 63.0 °F 96% 30.03 in 3.0 mi Calm Calm - N/A   Partly Cloudy
12:53 AM 64.0 °F - 63.0 °F 96% 30.02 in 9.0 mi Calm Calm - N/A   Partly Cloudy
1:53 AM 64.9 °F - 63.0 °F 93% 30.02 in 9.0 mi Calm Calm - N/A   Overcast
2:53 AM 66.9 °F - 61.0 °F 81% 30.01 in 10.0 mi Calm Calm - N/A   Overcast
3:53 AM 63.0 °F - 60.1 °F 90% 30.00 in 10.0 mi West 3.5 mph - N/A   Clear
4:53 AM 60.1 °F - 57.9 °F 93% 30.01 in 3.0 mi Calm Calm - N/A   Clear
5:08 AM 59.0 °F - 57.9 °F 96% 30.02 in 2.0 mi Calm Calm - N/A   Clear
5:19 AM 60.1 °F - 57.9 °F 93% 30.02 in 5.0 mi Calm Calm - N/A   Clear
5:40 AM 57.9 °F - 57.0 °F 97% 30.03 in 1.5 mi Calm Calm - N/A   Clear
5:53 AM 57.9 °F - 57.0 °F 97% 30.03 in 5.0 mi Calm Calm - N/A   Clear
6:01 AM 57.0 °F - 55.9 °F 96% 30.04 in 1.5 mi Calm Calm - N/A   Clear
6:05 AM 57.0 °F - 55.9 °F 96% 30.04 in 0.8 mi Calm Calm - N/A   Clear
6:12 AM 55.9 °F - 55.0 °F 97% 30.05 in 0.5 mi Calm Calm - N/A Fog Fog
6:17 AM 57.0 °F - 55.0 °F 93% 30.05 in 1.2 mi Calm Calm - N/A   Partly Cloudy
6:32 AM 57.0 °F - 55.9 °F 96% 30.05 in 0.8 mi Calm Calm - N/A   Mist
6:49 AM 57.2 °F - 55.4 °F 94% 30.06 in 2.0 mi Calm Calm - N/A   Scattered Clouds
6:53 AM 57.0 °F - 55.9 °F 96% 30.06 in 6.0 mi Calm Calm - N/A   Scattered Clouds
6:55 AM 57.0 °F - 55.9 °F 96% 30.06 in 1.8 mi Calm Calm - N/A   Scattered Clouds
7:05 AM 57.0 °F - 55.9 °F 96% 30.07 in 4.0 mi Calm Calm - N/A   Partly Cloudy
7:53 AM 62.1 °F - 60.1 °F 93% 30.07 in 10.0 mi SE 3.5 mph - N/A   Clear
8:53 AM 68.0 °F - 60.1 °F 76% 30.07 in 10.0 mi East 3.5 mph - 0.00 in   Clear
9:53 AM 73.0 °F - 59.0 °F 61% 30.07 in 10.0 mi NE 5.8 mph - 0.00 in   Clear
10:53 AM 75.9 °F - 59.0 °F 56% 30.06 in 10.0 mi NNE 5.8 mph - N/A   Clear
11:53 AM 78.1 °F - 60.1 °F 54% 30.05 in 10.0 mi Calm Calm - N/A   Clear
12:53 PM 79.0 °F - 59.0 °F 50% 30.04 in 10.0 mi Variable 3.5 mph - 0.00 in Rain Light Rain
1:53 PM 80.1 °F 80.7 °F 59.0 °F 48% 30.03 in 10.0 mi Calm Calm - 0.00 in Rain Light Rain
2:53 PM 81.0 °F 81.3 °F 59.0 °F 47% 30.02 in 10.0 mi Variable 5.8 mph - 0.00 in Rain Light Rain
3:53 PM 81.0 °F 81.3 °F 59.0 °F 47% 30.01 in 10.0 mi Variable 3.5 mph - 0.00 in   Scattered Clouds
4:53 PM 81.0 °F 81.1 °F 57.9 °F 45% 30.00 in 10.0 mi Variable 3.5 mph - N/A   Clear
5:53 PM 78.1 °F - 60.1 °F 54% 30.00 in 10.0 mi SSW 4.6 mph - N/A   Partly Cloudy
6:53 PM 75.9 °F - 61.0 °F 60% 29.99 in 10.0 mi Variable 3.5 mph - N/A   Clear
7:53 PM 69.1 °F - 63.0 °F 81% 30.01 in 10.0 mi Calm Calm - N/A   Clear
8:53 PM 68.0 °F - 63.0 °F 84% 30.01 in 10.0 mi Calm Calm - N/A   Clear
9:53 PM 64.0 °F - 61.0 °F 90% 30.02 in 10.0 mi Calm Calm - N/A   Clear
10:53 PM 63.0 °F - 60.1 °F 90% 30.03 in 10.0 mi Calm Calm - N/A   Clear
11:53 PM 63.0 °F - 61.0 °F 93% 30.03 in 10.0 mi SW 3.5 mph - N/A   Clear